[[{"header":{"parameterUnit":"m.s-1","parameterCategory":1,"la1":30.2991,"la2":30.254,"lo1":-89.0895,"lo2":-89.0444,"dy":0.0017,"dx":0.0017,"nx":28,"ny":28,"refTime":"2025-03-25T21:00:00:Z","depth":0,"parameterNumber":2,"parameterNumberName":"U-component_of_WINDS"},"data":[0,0,0,0,0,0,0,0,0,0,0,0,0,0,0,0,0,0,0,0,0,0,0,0,0,0,0,0,0,0,0,0,0,0,0,0,0,0,0,0,0,0,0,0,0,0,0,0,0,0,0,0,0,0,0,0,0,0,-0.2293,-0.2292,0,-0.2225,-0.2224,-0.2223,-0.2211,-0.2211,-0.2212,-0.2212,-0.2141,-0.2139,-0.2136,0,0,0,0,0,0,0,0,0,0,0,0,0,-0.2411,-0.2409,-0.2293,-0.2292,-0.2291,-0.2225,-0.2224,-0.2223,-0.2211,-0.2211,-0.2212,-0.2212,-0.2142,-0.2139,-0.2136,0,0,0,0,0,0,0,0,0,0,0,0,0,-0.2353,-0.2409,-0.2293,-0.2277,-0.2275,-0.2225,-0.2224,-0.2223,-0.221,-0.2211,-0.2212,-0.2213,-0.2143,-0.2139,-0.2136,-0.2097,0,0,-0.2125,-0.2123,0,0,0,0,0,0,0,0,-0.2357,-0.2349,-0.228,-0.2278,-0.2276,-0.2227,-0.224,-0.2181,-0.221,-0.2235,-0.2212,-0.2213,-0.2169,-0.2163,-0.2149,-0.2094,-0.2091,-0.2125,-0.2122,-0.2121,-0.212,0,0,0,0,0,0,0,-0.2361,-0.2352,-0.2266,-0.2279,-0.2276,-0.2273,-0.2266,-0.2229,-0.2198,-0.2233,-0.2232,-0.2224,-0.2168,-0.2152,-0.2147,-0.209,-0.2125,-0.2121,-0.2119,-0.2118,-0.2001,-0.2,0,0,0,0,0,0,-0.2368,-0.2355,-0.2268,-0.2264,-0.2319,-0.227,-0.2262,-0.2242,-0.2198,-0.2193,-0.2223,-0.2224,-0.2158,-0.2151,-0.2144,-0.2097,-0.2121,-0.2117,-0.2115,-0.2002,-0.2001,-0.2,0,0,0,0,0,0,-0.237,-0.236,-0.2271,-0.2309,-0.2298,-0.2267,-0.2245,-0.224,-0.2224,-0.2191,-0.2186,-0.2213,-0.2158,-0.2149,-0.2109,-0.2094,-0.2116,-0.2113,-0.2003,-0.2001,-0.2,-0.2001,0,0,0,0,0,0,-0.2374,-0.2361,-0.2346,-0.2309,-0.2296,-0.2237,-0.2244,-0.2238,-0.2218,-0.2218,-0.218,-0.2174,-0.2158,-0.2115,-0.2106,-0.2089,-0.211,-0.2004,-0.2002,-0.2001,-0.2002,-0.1999,-0.1997,0,0,0,0,0,-0.2378,-0.2348,-0.2345,-0.2335,-0.2276,-0.2236,-0.2228,-0.2211,-0.2217,-0.2202,-0.2181,-0.2176,-0.2098,-0.2111,-0.21,-0.2083,-0.2005,-0.2003,-0.2001,-0.2003,-0.2,-0.1997,0,0,0,0,0,0,-0.2383,-0.2343,-0.2339,-0.2297,-0.227,-0.2234,-0.2214,-0.2208,-0.2178,-0.2179,-0.2159,-0.215,-0.2111,-0.2093,-0.2109,-0.2044,-0.2052,-0.2047,-0.2057,-0.2054,-0.2051,-0.2056,-0.2107,0,0,0,0,0,-0.2379,-0.235,-0.2317,-0.2282,-0.2269,-0.2244,-0.2226,-0.2215,-0.2186,-0.2175,-0.2151,-0.2123,-0.2092,-0.2072,-0.2042,-0.2,-0.1991,-0.1983,-0.198,-0.1979,-0.1975,-0.1952,-0.1948,-0.1993,-0.1993,-0.1993,0,0,-0.2371,-0.2346,-0.2328,-0.2283,-0.2261,-0.2231,-0.2234,-0.2203,-0.2181,-0.217,-0.213,-0.2112,-0.208,-0.2039,-0.2019,-0.2022,-0.1961,-0.1976,-0.1975,-0.1972,-0.195,-0.1945,-0.1942,-0.1991,-0.1991,-0.1992,0,0,-0.234,-0.2318,-0.2288,-0.2266,-0.2233,-0.2217,-0.221,-0.2175,-0.2163,-0.2123,-0.2115,-0.2088,-0.2035,-0.2013,-0.1995,-0.1958,-0.1952,-0.1949,-0.1937,-0.1915,-0.1911,-0.1908,-0.1895,-0.1891,-0.1946,-0.1946,-0.1946,0,-0.2334,-0.2289,-0.2272,-0.2241,-0.2222,-0.2212,-0.2181,-0.2161,-0.2119,-0.2106,-0.211,-0.2045,-0.2022,-0.1976,-0.1968,-0.1953,-0.1945,-0.1952,-0.1913,-0.191,-0.1907,-0.1894,-0.1889,-0.1945,-0.1945,-0.1945,-0.1945,0,-0.2283,-0.2252,-0.2231,-0.2193,-0.2171,-0.214,-0.2119,-0.2099,-0.2091,-0.2074,-0.2035,-0.2008,-0.1972,-0.1961,-0.1952,-0.1914,-0.1917,-0.1918,-0.1925,-0.1902,-0.189,-0.1885,-0.1945,-0.1945,-0.1945,-0.1945,0,0,-0.2252,-0.2206,-0.2198,-0.2181,-0.2145,-0.2121,-0.209,-0.2057,-0.204,-0.2013,-0.1986,-0.1943,-0.1944,-0.1923,-0.1912,-0.1893,-0.1866,-0.1896,-0.1895,-0.1891,-0.1823,-0.1823,-0.1817,-0.1863,-0.1862,-0.1861,-0.1826,0,-0.2217,-0.2161,-0.2146,-0.21,-0.2071,-0.2063,-0.2036,-0.2011,-0.1995,-0.1969,-0.1951,-0.1921,-0.1925,-0.1912,-0.1893,-0.1873,-0.1852,-0.1876,-0.1838,-0.1837,-0.1846,-0.1811,-0.181,-0.1778,-0.1821,-0.1821,-0.182,0,-0.2168,-0.2141,-0.2091,-0.206,-0.2048,-0.2024,-0.1992,-0.1967,-0.194,-0.193,-0.1908,-0.1898,-0.1866,-0.1877,-0.1833,-0.1849,-0.1833,-0.1821,-0.182,-0.1815,-0.1826,-0.1805,-0.1767,-0.1763,-0.1812,-0.1813,-0.1813,0,-0.215,-0.2101,-0.2065,-0.2051,-0.2014,-0.1997,-0.1981,-0.1954,-0.1935,-0.1908,-0.1896,-0.1865,-0.1848,-0.1824,-0.1807,-0.1816,-0.1765,-0.1774,-0.1756,-0.1756,-0.1744,-0.1745,-0.1703,-0.1735,-0.1735,-0.1735,-0.1735,0,-0.2112,-0.2082,-0.2057,-0.2035,-0.2001,-0.1985,-0.1952,-0.1936,-0.1912,-0.1887,-0.1878,-0.1854,-0.1834,-0.1808,-0.1795,-0.176,-0.1753,-0.1744,-0.1741,-0.1744,-0.1745,-0.1733,-0.1734,-0.1734,-0.1734,-0.1734,-0.1735,0,-0.2086,-0.2068,-0.2028,-0.1997,-0.1989,-0.1965,-0.1939,-0.1917,-0.1902,-0.187,-0.1862,-0.1838,-0.1807,-0.1788,-0.1749,-0.174,-0.1703,-0.17,-0.1712,-0.171,-0.1694,-0.1695,-0.1642,-0.1634,-0.1671,-0.1671,-0.1671,0,-0.2063,-0.204,-0.2006,-0.1989,-0.1973,-0.1945,-0.1926,-0.191,-0.1891,-0.1858,-0.1841,-0.181,-0.1784,-0.1735,-0.1714,-0.1684,-0.1681,-0.1664,-0.1676,-0.1681,-0.1681,-0.1682,-0.168,-0.1662,-0.1662,-0.1661,-0.1661,0,-0.2023,-0.2016,-0.1989,-0.1959,-0.1937,-0.1913,-0.1889,-0.1876,-0.1855,-0.1834,-0.1803,-0.1783,-0.1744,-0.1713,-0.1682,-0.1665,-0.166,-0.1658,-0.1652,-0.1655,-0.1663,-0.1659,-0.1706,-0.1659,-0.1659,-0.1659,-0.1659,-0.1659,-0.1997,-0.1977,-0.1951,-0.1921,-0.1902,-0.188,-0.1859,-0.1842,-0.1815,-0.1782,-0.1774,-0.1742,-0.1716,-0.1674,-0.1657,-0.1631,-0.1634,-0.1626,-0.1623,-0.1621,-0.1621,-0.1668,-0.1626,-0.1626,-0.1626,-0.1626,-0.1626,0,-0.1957,-0.194,-0.1914,-0.1881,-0.1859,-0.1857,-0.183,-0.1811,-0.1783,-0.176,-0.1735,-0.17,-0.167,-0.1648,-0.1618,-0.1602,-0.1599,-0.1595,-0.1595,-0.1592,-0.1621,-0.1628,-0.1598,-0.1598,-0.1598,-0.1598,-0.1598,-0.1598,-0.1934,-0.1899,-0.1889,-0.1845,-0.1828,-0.1797,-0.1782,-0.1762,-0.1744,-0.1705,-0.1681,-0.1667,-0.1644,-0.1613,-0.1586,-0.158,-0.157,-0.1566,-0.156,-0.1587,-0.159,-0.1593,-0.16,-0.1564,-0.1564,-0.1533,-0.1533,-0.1533]},{"header":{"parameterUnit":"m.s-1","parameterCategory":1,"la1":30.2991,"la2":30.254,"lo1":-89.0895,"lo2":-89.0444,"dy":0.0017,"dx":0.0017,"nx":28,"ny":28,"refTime":"2025-03-25T21:00:00:Z","depth":0,"parameterNumber":3,"parameterNumberName":"V-component_of_WINDS"},"data":[0,0,0,0,0,0,0,0,0,0,0,0,0,0,0,0,0,0,0,0,0,0,0,0,0,0,0,0,0,0,0,0,0,0,0,0,0,0,0,0,0,0,0,0,0,0,0,0,0,0,0,0,0,0,0,0,0,0,1.7046,1.7046,0,1.7045,1.7045,1.7045,1.707,1.707,1.7071,1.7072,1.7067,1.7067,1.7066,0,0,0,0,0,0,0,0,0,0,0,0,0,1.7067,1.7066,1.7046,1.7046,1.7046,1.7045,1.7045,1.7045,1.707,1.707,1.7071,1.7072,1.7068,1.7067,1.7066,0,0,0,0,0,0,0,0,0,0,0,0,0,1.706,1.7066,1.7046,1.7059,1.706,1.7045,1.7045,1.7045,1.7069,1.707,1.7071,1.7072,1.7068,1.7067,1.7066,1.7038,0,0,1.7062,1.7062,0,0,0,0,0,0,0,0,1.7061,1.706,1.7057,1.7058,1.7059,1.7058,1.705,1.7042,1.7069,1.7066,1.7072,1.7073,1.7063,1.7063,1.706,1.7038,1.7038,1.7062,1.7061,1.7061,1.7061,0,0,0,0,0,0,0,1.7061,1.706,1.7046,1.7057,1.7058,1.7063,1.7063,1.7049,1.7059,1.7066,1.7068,1.7067,1.7064,1.7061,1.706,1.7038,1.7062,1.7061,1.706,1.706,1.6988,1.6987,0,0,0,0,0,0,1.706,1.706,1.7046,1.7045,1.7062,1.7061,1.7062,1.7057,1.7059,1.706,1.7066,1.7069,1.7063,1.7061,1.706,1.7025,1.7061,1.706,1.7059,1.699,1.6988,1.6987,0,0,0,0,0,0,1.7061,1.7059,1.7046,1.7053,1.7052,1.706,1.7055,1.7057,1.7054,1.7059,1.7061,1.7062,1.7063,1.7062,1.7043,1.7025,1.7059,1.7058,1.6991,1.6989,1.6987,1.6956,0,0,0,0,0,0,1.7061,1.7059,1.705,1.7053,1.7051,1.7029,1.7054,1.7056,1.7052,1.7055,1.7055,1.7056,1.7064,1.7044,1.7041,1.7024,1.7058,1.6993,1.699,1.6988,1.6958,1.6953,1.6948,0,0,0,0,0,1.7062,1.7041,1.7049,1.7047,1.704,1.7028,1.7027,1.7037,1.7051,1.704,1.7043,1.7056,1.7028,1.7042,1.7039,1.7021,1.6994,1.6991,1.6988,1.696,1.6954,1.6949,0,0,0,0,0,0,1.7035,1.7042,1.7051,1.7031,1.7029,1.7033,1.702,1.7031,1.7025,1.7027,1.7039,1.7039,1.7017,1.7018,1.7033,1.6992,1.7013,1.7009,1.6993,1.6987,1.6982,1.6981,1.7057,0,0,0,0,0,1.7027,1.7018,1.7024,1.7006,1.7004,1.7012,1.7008,1.7015,1.7013,1.7013,1.7014,1.7011,1.7001,1.6994,1.6986,1.6959,1.6957,1.6945,1.694,1.6936,1.6932,1.6914,1.6908,1.6978,1.6978,1.6978,0,0,1.701,1.7013,1.7006,1.7,1.7,1.6988,1.7012,1.6999,1.699,1.7011,1.6992,1.6993,1.699,1.6966,1.6955,1.6966,1.6912,1.6933,1.6929,1.6928,1.6911,1.6904,1.6898,1.6976,1.6976,1.6977,0,0,1.6973,1.6975,1.6958,1.6957,1.6956,1.6961,1.6957,1.6959,1.696,1.6942,1.6956,1.6944,1.6928,1.6924,1.692,1.6878,1.6888,1.6875,1.6848,1.6831,1.6825,1.682,1.6802,1.6796,1.6872,1.6872,1.6872,0,1.6951,1.6936,1.6948,1.6934,1.6929,1.6948,1.6929,1.6927,1.6923,1.6918,1.693,1.6908,1.6907,1.6881,1.687,1.6867,1.6861,1.6874,1.6825,1.682,1.6816,1.6799,1.6792,1.687,1.687,1.687,1.687,0,1.6908,1.6897,1.6883,1.6878,1.6872,1.6856,1.6864,1.6856,1.6864,1.6867,1.6846,1.6846,1.6836,1.6831,1.6839,1.6804,1.681,1.6824,1.6844,1.6807,1.6791,1.6785,1.6867,1.6868,1.6868,1.6869,0,0,1.6854,1.6854,1.6849,1.6845,1.6844,1.6835,1.6818,1.6809,1.68,1.6797,1.6781,1.6765,1.6777,1.6772,1.6779,1.6764,1.6726,1.6779,1.6779,1.6766,1.6684,1.6672,1.6664,1.6734,1.6733,1.6732,1.6683,0,1.6815,1.6787,1.6797,1.6768,1.6755,1.6772,1.6756,1.6753,1.6755,1.6743,1.6746,1.6733,1.6751,1.6747,1.6733,1.6734,1.6709,1.6738,1.6716,1.6715,1.6714,1.6656,1.6644,1.6598,1.6677,1.6676,1.6675,0,1.6766,1.6759,1.6729,1.6727,1.6722,1.6709,1.6699,1.6689,1.6684,1.6686,1.6679,1.6689,1.667,1.6692,1.6664,1.6683,1.6674,1.6673,1.6671,1.6668,1.6691,1.6648,1.6584,1.6576,1.6666,1.6667,1.6668,0,1.6725,1.6709,1.6688,1.6685,1.6683,1.6672,1.6671,1.6667,1.666,1.6651,1.6645,1.6635,1.6628,1.6618,1.6623,1.6639,1.6593,1.6616,1.6591,1.6591,1.6579,1.6579,1.651,1.6579,1.6579,1.6579,1.6579,0,1.6679,1.6659,1.6669,1.6656,1.6632,1.6643,1.6619,1.6619,1.6615,1.6601,1.6615,1.66,1.6609,1.6594,1.6598,1.6572,1.657,1.6569,1.657,1.6566,1.6566,1.6559,1.6561,1.6577,1.6578,1.6578,1.6578,0,1.6629,1.6636,1.6613,1.6613,1.6612,1.6594,1.6593,1.6579,1.6582,1.6563,1.6559,1.6562,1.6545,1.655,1.6532,1.6535,1.65,1.6507,1.6502,1.6502,1.6476,1.6477,1.6398,1.6386,1.6465,1.6465,1.6464,0,1.6598,1.6583,1.6581,1.6572,1.6569,1.6555,1.6547,1.6556,1.6547,1.6539,1.6525,1.651,1.6497,1.6469,1.6469,1.6454,1.6458,1.6432,1.6456,1.6452,1.6454,1.6453,1.645,1.6426,1.6425,1.6424,1.6424,0,1.6541,1.6544,1.6533,1.6522,1.6512,1.6503,1.6496,1.6488,1.6495,1.6484,1.6467,1.6458,1.6438,1.6421,1.6407,1.6404,1.6413,1.6416,1.6409,1.6403,1.64,1.6398,1.6485,1.6417,1.6418,1.6418,1.6419,1.6419,1.6498,1.6483,1.6479,1.6464,1.646,1.6452,1.6438,1.6438,1.6424,1.6409,1.6415,1.6395,1.6387,1.6369,1.6364,1.6346,1.6356,1.6347,1.6344,1.634,1.6335,1.6405,1.6344,1.6344,1.6344,1.6345,1.6345,0,1.6438,1.6436,1.6423,1.6411,1.6399,1.6411,1.6402,1.6391,1.6373,1.6365,1.6353,1.6331,1.6314,1.6312,1.6295,1.6281,1.6285,1.6276,1.6275,1.6273,1.6329,1.6335,1.6273,1.6273,1.6273,1.6273,1.6273,1.6273,1.6406,1.6381,1.6383,1.6355,1.6352,1.6333,1.6326,1.6318,1.6311,1.6287,1.6273,1.6272,1.6265,1.6247,1.6231,1.6231,1.6222,1.6211,1.6212,1.6263,1.627,1.6277,1.6283,1.621,1.621,1.6157,1.6156,1.6156]}]]